This demonstration page uses our WeatherBlox Daily Observations layout. Learn more.

Left ArrowRight Arrow

39.51506, -84.39828

Hourly Observations for February 18, 2019

Temp ( °F °C ) Dew Point ( °F °C ) Humidity (%) Winds ( mph kmh ) Pressure ( in mb ) Visibility ( mi km ) Precip ( " mm )
12:15 am 00:15 Cloudy 32 0.2 29 -1.5 89 89 WSW 9 15 29.94 1014 10 16 0.00 0.00
12:35 am 00:35 Cloudy 32 0.1 29 -1.4 90 90 W 6 9 29.94 1014 10 16 0.00 0.00
12:55 am 00:55 Cloudy 32 0.2 29 -1.4 89 89 W 9 15 29.95 1014 10 16 0.00 0.00
1:15 am 01:15 Cloudy 32 0.2 29 -1.4 89 89 W 12 19 29.96 1015 10 16 0.00 0.00
1:35 am 01:35 Cloudy 32 0.2 29 -1.4 89 89 WSW 7 11 29.98 1015 10 16 0.00 0.00
1:55 am 01:55 Cloudy 32 0.2 29 -1.6 88 88 W 10 17 29.98 1015 10 16 0.00 0.00
2:15 am 02:15 Cloudy 32 0.2 29 -1.6 88 88 W 10 17 29.99 1016 10 16 0.00 0.00
2:35 am 02:35 Cloudy 32 0.2 29 -1.4 89 89 W 8 13 30.00 1016 10 16 0.00 0.00
2:55 am 02:55 Cloudy 32 0.2 29 -1.8 87 87 W 12 19 30.01 1016 10 16 0.00 0.00
3:15 am 03:15 Cloudy 32 0.2 28 -2 85 85 W 14 22 30.01 1016 10 16 0.00 0.00
3:35 am 03:35 Cloudy 32 0.2 28 -2.3 84 84 W 14 22 30.02 1017 10 16 0.00 0.00
3:55 am 03:55 Cloudy 32 0.2 28 -2.3 84 84 W 9 15 30.02 1017 10 16 0.00 0.00
4:15 am 04:15 Cloudy 32 0.1 28 -2.3 84 84 WSW 9 15 30.02 1017 10 16 0.00 0.00
4:35 am 04:35 Cloudy 32 0.2 28 -2.2 84 84 W 10 17 30.03 1017 10 16 0.00 0.00
4:55 am 04:55 Cloudy 32 0.2 28 -2.2 84 84 WSW 9 15 30.04 1017 10 16 0.00 0.00
5:15 am 05:15 Cloudy 32 0.2 28 -2.3 84 84 WSW 9 15 30.05 1018 10 16 0.00 0.00
5:35 am 05:35 Cloudy with Light Wintry Mix 32 0.2 27 -2.6 82 82 W 10 17 30.05 1018 10 16 0.00 0.00
5:55 am 05:55 Cloudy with Light Snow 32 0.2 27 -2.7 81 81 W 9 15 30.07 1018 10 16 0.00 0.00
6:15 am 06:15 Cloudy with Light Rain 32 0.1 27 -2.8 81 81 W 10 17 30.08 1019 10 16 0.00 0.00
6:35 am 06:35 Cloudy with Light Snow 32 0 27 -2.9 81 81 W 10 17 30.10 1019 10 16 0.00 0.00
6:55 am 06:55 Cloudy with Light Snow 32 -0.1 26 -3.1 80 80 W 12 19 30.11 1019 10 16 0.00 0.00
7:15 am 07:15 Cloudy with Light Snow 32 -0.2 27 -2.9 82 82 W 8 13 30.12 1020 10 16 0.00 0.00
7:35 am 07:35 Cloudy with Light Snow 31 -0.4 26 -3.5 80 80 W 9 15 30.14 1021 10 16 0.00 0.00
7:55 am 07:55 Cloudy with Light Snow 31 -0.6 26 -3.5 81 81 W 10 17 30.15 1021 10 16 0.00 0.00
8:15 am 08:15 Cloudy with Light Snow 31 -0.7 26 -3.6 81 81 W 10 17 30.16 1021 7 11 0.00 0.00
8:35 am 08:35 Cloudy with Light Snow 31 -0.7 26 -3.5 82 82 WSW 9 15 30.18 1022 7 11 0.00 0.00
8:55 am 08:55 Cloudy with Light Snow 31 -0.7 26 -3.6 81 81 WSW 9 15 30.19 1022 7 11 0.00 0.00
9:15 am 09:15 Cloudy with Light Snow 31 -0.6 26 -3.6 80 80 W 9 15 30.21 1023 10 16 0.00 0.00
9:35 am 09:35 Cloudy 31 -0.4 25 -3.8 78 78 W 14 22 30.22 1023 10 16 0.00 0.00
9:55 am 09:55 Cloudy 31 -0.4 25 -4.1 76 76 W 13 20 30.22 1023 10 16 0.00 0.00
10:15 am 10:15 Cloudy with Light Snow 32 -0.2 25 -3.7 78 78 W 10 17 30.23 1024 10 16 0.00 0.00
10:35 am 10:35 Cloudy with Light Snow 32 0.1 26 -3.4 78 78 W 14 22 30.25 1024 10 16 0.00 0.00
10:55 am 10:55 Cloudy with Light Snow 32 -0.1 25 -3.8 76 76 W 12 19 30.26 1025 10 16 0.00 0.00
11:15 am 11:15 Cloudy with Light Wintry Mix 32 0 25 -3.7 76 76 WSW 15 24 30.28 1025 10 16 0.00 0.00
11:35 am 11:35 Cloudy with Light Snow 32 0 25 -4 75 75 W 15 24 30.29 1026 10 16 0.00 0.00
11:55 am 11:55 Cloudy with Light Snow 32 0.2 25 -4.1 73 73 W 14 22 30.29 1026 10 16 0.00 0.00
12:15 pm 12:15 Cloudy with Light Rain 32 0.2 24 -4.3 72 72 WNW 13 20 30.30 1026 10 16 0.00 0.00
12:35 pm 12:35 Cloudy with Light Snow 32 -0.1 24 -4.5 73 73 W 14 22 30.32 1027 10 16 0.00 0.00
12:55 pm 12:55 Cloudy with Light Snow 32 0.2 24 -4.3 72 72 W 12 19 30.31 1027 10 16 0.00 0.00
1:15 pm 13:15 Cloudy with Light Snow 32 0.2 25 -4.1 73 73 W 12 19 30.31 1027 10 16 0.00 0.00
1:35 pm 13:35 Cloudy with Light Snow 32 0.2 25 -4.1 73 73 WSW 12 19 30.32 1027 10 16 0.00 0.00
1:55 pm 13:55 Cloudy 32 0.1 25 -4.1 74 74 WSW 16 26 30.34 1027 10 16 0.00 0.00
2:15 pm 14:15 Cloudy with Light Snow 32 -0.1 25 -4.1 75 75 W 14 22 30.35 1028 10 16 0.00 0.00
2:35 pm 14:35 Cloudy with Light Snow 31 -0.3 25 -4 76 76 W 14 22 30.36 1028 7 11 0.00 0.00
2:55 pm 14:55 Cloudy with Light Snow 30 -1.2 25 -4.1 81 81 WNW 8 13 30.37 1028 5 8 0.00 0.00
3:15 pm 15:15 Cloudy with Light Snow 30 -1.1 25 -4.1 80 80 WNW 8 13 30.37 1028 10 16 0.00 0.00
3:35 pm 15:35 Cloudy with Light Snow 30 -1 25 -4 80 80 WNW 5 7 30.38 1029 10 16 0.00 0.00
3:55 pm 15:55 Cloudy with Light Snow 30 -0.9 25 -4 80 80 WNW 6 9 30.40 1029 10 16 0.00 0.00
4:15 pm 16:15 Cloudy with Light Snow 31 -0.6 25 -4.1 77 77 W 6 9 30.41 1030 10 16 0.00 0.00
4:35 pm 16:35 Cloudy 32 -0.2 24 -4.3 74 74 NW 7 11 30.42 1030 10 16 0.00 0.00
4:55 pm 16:55 Cloudy with Light Rain 31 -0.4 23 -5.2 70 70 NNW 13 20 30.42 1030 10 16 0.00 0.00
5:15 pm 17:15 Cloudy 31 -0.8 22 -5.8 69 69 WNW 9 15 30.44 1031 10 16 0.00 0.00
5:35 pm 17:35 Cloudy 31 -0.8 22 -5.7 70 70 NW 6 9 30.45 1031 10 16 0.00 0.00
5:55 pm 17:55 Cloudy 30 -1 21 -6 69 69 WNW 9 15 30.46 1031 10 16 0.00 0.00
6:15 pm 18:15 Cloudy 30 -1 21 -6.1 69 69 NW 9 15 30.47 1032 10 16 0.00 0.00
6:35 pm 18:35 Cloudy 29 -1.4 21 -6 71 71 NW 7 11 30.49 1032 10 16 0.00 0.00
7:15 pm 19:15 Cloudy 29 -1.6 21 -6.3 71 71 WNW 5 7 30.52 1034 10 16 0.00 0.00
7:35 pm 19:35 Cloudy 29 -1.7 21 -6.3 71 71 WNW 3 6 30.53 1034 10 16 0.00 0.00
7:55 pm 19:55 Cloudy 29 -1.7 21 -6.2 72 72 NW 3 6 30.54 1034 10 16 0.00 0.00
8:15 pm 20:15 Cloudy 29 -1.9 20 -6.4 72 72 Calm 30.54 1034 10 16 0.00 0.00
8:35 pm 20:35 Cloudy 28 -2.1 21 -6.2 74 74 N 3 6 30.54 1034 10 16 0.00 0.00
8:55 pm 20:55 Cloudy 28 -2.2 20 -6.5 73 73 Calm 30.56 1035 10 16 0.00 0.00
9:15 pm 21:15 Cloudy 28 -2.1 20 -6.4 73 73 Calm 30.56 1035 10 16 0.00 0.00
9:35 pm 21:35 Mostly Cloudy 28 -2.2 21 -6.2 74 74 Calm 30.56 1035 10 16 0.00 0.00
9:55 pm 21:55 Clear 27 -2.6 20 -6.5 75 75 Calm 30.56 1035 10 16 0.00 0.00
10:15 pm 22:15 Clear 27 -2.9 21 -6.1 79 79 Calm 30.58 1036 10 16 0.00 0.00
10:35 pm 22:35 Clear 25 -3.7 21 -6.1 84 84 Calm 30.59 1036 10 16 0.00 0.00
10:55 pm 22:55 Clear 25 -3.9 22 -5.8 87 87 Calm 30.58 1035 10 16 0.00 0.00
11:15 pm 23:15 Clear 23 -4.8 21 -6.1 91 91 Calm 30.59 1036 10 16 0.00 0.00
11:35 pm 23:35 Clear 24 -4.7 21 -6.2 89 89 Calm 30.59 1036 10 16 0.00 0.00
11:55 pm 23:55 Clear 23 -5.1 21 -6.2 92 92 Calm 30.59 1036 10 16 0.00 0.00

Powered by AerisWeather